Вернуться в каталог

STARLINK-3831

АктивенСвязьVLEO
NORAD 52332·PAYLOAD·🇺🇸 United States

Запущен Apr 29, 2022 с Cape Canaveral Space Force Station

Loading…

Ближайшие Пролёты (ближайшие 24 часа)

TLE

СвежийSource: CelesTrak SupGP

Эпоха: Sep 15, 2026, 01:35 UTC

1 52332C 22045B   26258.06645833  .00670390  00000+0  21159-1 0  2587
2 52332  53.1605  76.7932 0001146  77.9166 154.3914 15.31964535    19

Отслеживайте STARLINK-3831 в реальном времени с AllMySat

Download on the App Store